When you browse on this site, cookies collect data to enhance your experience and personalize the content and advertising you see.
Visit our Privacy Policy to learn more. By continuing to use the site, you agree to this use of cookies and data.
  • en France
  • Liste des pays
  • À 7 jours
  • Température de l'eau
  • Carte satellitaire
  • Carte météo
  • Widgets météo
  • user-avatar
    Se connecter

    Météo par heure à Toulouse

    Ce jour, 23 Janvier, Mercredi

    Heure Température Précipitation Vent Pression Humidité
    00:00 +3°C° 0 mm 3 m/s 740 mmHg 80%
    01:00 +3°C° 0.3 mm 4 m/s 739 mmHg 84%
    02:00 +3°C° 0.3 mm 5 m/s 738 mmHg 87%
    03:00 +4°C° 0.3 mm 6 m/s 737 mmHg 91%
    04:00 +5°C° 0.2 mm 5 m/s 737 mmHg 92%
    05:00 +3°C° 0.2 mm 5 m/s 736 mmHg 94%
    06:00 +4°C° 0.2 mm 4 m/s 735 mmHg 95%
    07:00 +5°C° 0.7 mm 5 m/s 735 mmHg 94%
    08:00 +5°C° 0.7 mm 5 m/s 735 mmHg 93%
    09:00 +4°C° 0.7 mm 6 m/s 735 mmHg 93%
    10:00 +5°C° 0.2 mm 7 m/s 735 mmHg 81%
    11:00 +5°C° 0.2 mm 8 m/s 735 mmHg 69%
    12:00 +6°C° 0.2 mm 10 m/s 736 mmHg 58%
    13:00 +6°C° 0.1 mm 10 m/s 736 mmHg 58%
    14:00 +5°C° 0.1 mm 10 m/s 736 mmHg 58%
    15:00 +5°C° 0.1 mm 10 m/s 736 mmHg 57%
    16:00 +3°C° 0.2 mm 9 m/s 736 mmHg 61%
    17:00 +2°C° 0.2 mm 8 m/s 737 mmHg 65%
    18:00 +2°C° 0.2 mm 7 m/s 737 mmHg 68%
    19:00 +2°C° 0.1 mm 7 m/s 738 mmHg 71%
    20:00 +2°C° 0.1 mm 7 m/s 739 mmHg 73%
    21:00 0°C° 0.1 mm 7 m/s 739 mmHg 75%
    22:00 0°C° 0 mm 7 m/s 739 mmHg 77%
    23:00 -1°C° 0 mm 7 m/s 740 mmHg 78%

    Demain, 24 Janvier, Jeudi

    Heure Température Précipitation Vent Pression Humidité
    00:00 -1°C° 0 mm 7 m/s 740 mmHg 80%
    01:00 -2°C° 0 mm 7 m/s 741 mmHg 81%
    02:00 -2°C° 0 mm 7 m/s 741 mmHg 82%
    03:00 -2°C° 0 mm 7 m/s 742 mmHg 83%
    04:00 -2°C° 0 mm 6 m/s 742 mmHg 85%
    05:00 -3°C° 0 mm 6 m/s 743 mmHg 87%
    06:00 -3°C° 0 mm 6 m/s 743 mmHg 88%
    07:00 -3°C° 0 mm 6 m/s 744 mmHg 87%
    08:00 -3°C° 0 mm 6 m/s 744 mmHg 86%
    09:00 -2°C° 0 mm 7 m/s 745 mmHg 84%
    10:00 -1°C° 0 mm 7 m/s 745 mmHg 78%
    11:00 0°C° 0 mm 7 m/s 745 mmHg 72%
    12:00 +2°C° 0 mm 7 m/s 745 mmHg 66%
    13:00 +2°C° 0 mm 7 m/s 746 mmHg 65%
    14:00 +2°C° 0 mm 7 m/s 746 mmHg 64%
    15:00 +3°C° 0 mm 7 m/s 746 mmHg 63%
    16:00 +2°C° 0 mm 7 m/s 746 mmHg 66%
    17:00 +2°C° 0 mm 6 m/s 747 mmHg 69%
    18:00 +1°C° 0 mm 5 m/s 748 mmHg 72%
    19:00 +1°C° 0 mm 5 m/s 749 mmHg 73%
    20:00 +1°C° 0 mm 4 m/s 749 mmHg 73%
    21:00 +1°C° 0 mm 4 m/s 750 mmHg 73%
    22:00 0°C° 0 mm 4 m/s 750 mmHg 76%
    23:00 -1°C° 0 mm 4 m/s 750 mmHg 80%

    Après-demain, 25 Janvier, Vendredi

    Heure Température Précipitation Vent Pression Humidité
    00:00 -1°C° 0 mm 3 m/s 750 mmHg 84%
    01:00 -1°C° 0 mm 4 m/s 750 mmHg 81%
    02:00 -1°C° 0 mm 4 m/s 750 mmHg 78%
    03:00 0°C° 0 mm 4 m/s 749 mmHg 75%
    04:00 0°C° 0.1 mm 4 m/s 749 mmHg 74%
    05:00 +1°C° 0.1 mm 5 m/s 748 mmHg 72%
    06:00 +1°C° 0.1 mm 5 m/s 748 mmHg 71%
    07:00 +2°C° 0.5 mm 6 m/s 748 mmHg 76%
    08:00 +3°C° 0.5 mm 6 m/s 748 mmHg 82%
    09:00 +3°C° 0.5 mm 7 m/s 748 mmHg 87%
    10:00 +4°C° 0.2 mm 7 m/s 748 mmHg 88%
    11:00 +5°C° 0.2 mm 7 m/s 748 mmHg 90%
    12:00 +5°C° 0.2 mm 8 m/s 747 mmHg 91%
    13:00 +6°C° 0.3 mm 7 m/s 748 mmHg 92%
    14:00 +6°C° 0.3 mm 7 m/s 748 mmHg 92%
    15:00 +6°C° 0.3 mm 7 m/s 748 mmHg 92%
    16:00 +7°C° 0.1 mm 6 m/s 748 mmHg 92%
    17:00 +5°C° 0.1 mm 6 m/s 749 mmHg 91%
    18:00 +5°C° 0.1 mm 6 m/s 749 mmHg 91%
    19:00 +5°C° 0 mm 5 m/s 750 mmHg 91%
    20:00 +4°C° 0 mm 4 m/s 751 mmHg 91%
    21:00 +3°C° 0 mm 3 m/s 752 mmHg 91%
    22:00 +2°C° 0 mm 3 m/s 752 mmHg 91%
    23:00 +2°C° 0 mm 3 m/s 752 mmHg 91%

    26 Janvier, Samedi

    Heure Température Précipitation Vent Pression Humidité
    00:00 +2°C° 0 mm 3 m/s 753 mmHg 91%
    01:00 +2°C° 0 mm 2 m/s 753 mmHg 91%
    02:00 +2°C° 0 mm 2 m/s 753 mmHg 91%
    03:00 +2°C° 0 mm 2 m/s 753 mmHg 91%
    04:00 +2°C° 0 mm 2 m/s 753 mmHg 92%
    05:00 +3°C° 0 mm 1 m/s 753 mmHg 92%
    06:00 +3°C° 0 mm 1 m/s 753 mmHg 92%
    07:00 +4°C° 0 mm 1 m/s 753 mmHg 91%
    08:00 +4°C° 0 mm 2 m/s 753 mmHg 90%
    09:00 +4°C° 0 mm 2 m/s 753 mmHg 89%
    10:00 +5°C° 0 mm 3 m/s 753 mmHg 86%
    11:00 +7°C° 0 mm 3 m/s 752 mmHg 82%
    12:00 +7°C° 0 mm 4 m/s 752 mmHg 79%
    13:00 +7°C° 0.1 mm 4 m/s 751 mmHg 82%
    14:00 +7°C° 0.1 mm 4 m/s 751 mmHg 85%
    15:00 +7°C° 0.1 mm 4 m/s 750 mmHg 87%
    16:00 +7°C° 0.1 mm 5 m/s 750 mmHg 88%
    17:00 +7°C° 0.1 mm 5 m/s 750 mmHg 89%
    18:00 +7°C° 0.1 mm 5 m/s 750 mmHg 90%
    19:00 +7°C° 0.1 mm 5 m/s 750 mmHg 90%
    20:00 +6°C° 0.1 mm 5 m/s 750 mmHg 89%
    21:00 +5°C° 0.1 mm 6 m/s 750 mmHg 88%
    22:00 +5°C° 0.1 mm 6 m/s 749 mmHg 87%
    23:00 +5°C° 0.1 mm 6 m/s 749 mmHg 85%

    27 Janvier, Dimanche

    Heure Température Précipitation Vent Pression Humidité
    00:00 +5°C° 0.1 mm 7 m/s 748 mmHg 84%
    01:00 +5°C° 0.4 mm 7 m/s 747 mmHg 84%
    02:00 +5°C° 0.4 mm 8 m/s 746 mmHg 83%
    03:00 +5°C° 0.4 mm 8 m/s 745 mmHg 83%
    04:00 +6°C° 0.6 mm 8 m/s 745 mmHg 83%
    05:00 +6°C° 0.6 mm 9 m/s 745 mmHg 83%
    06:00 +6°C° 0.6 mm 9 m/s 745 mmHg 83%
    07:00 +5°C° 0 mm 8 m/s 746 mmHg 80%
    08:00 +4°C° 0 mm 7 m/s 747 mmHg 77%
    09:00 +3°C° 0 mm 6 m/s 748 mmHg 74%
    10:00 +3°C° 0 mm 7 m/s 748 mmHg 70%
    11:00 +4°C° 0 mm 7 m/s 748 mmHg 65%
    12:00 +4°C° 0 mm 7 m/s 749 mmHg 61%
    13:00 +4°C° 0.1 mm 7 m/s 748 mmHg 60%
    14:00 +4°C° 0.1 mm 7 m/s 748 mmHg 58%
    15:00 +4°C° 0.1 mm 8 m/s 747 mmHg 57%
    16:00 +4°C° 0.1 mm 7 m/s 747 mmHg 62%
    17:00 +3°C° 0.1 mm 7 m/s 748 mmHg 66%
    18:00 +2°C° 0.1 mm 6 m/s 748 mmHg 70%
    19:00 +2°C° 0.2 mm 6 m/s 748 mmHg 72%
    20:00 +2°C° 0.2 mm 6 m/s 748 mmHg 74%
    21:00 +1°C° 0.2 mm 6 m/s 748 mmHg 76%
    22:00 +1°C° 0 mm 6 m/s 748 mmHg 79%
    23:00 -1°C° 0 mm 6 m/s 748 mmHg 82%

    28 Janvier, Lundi

    Heure Température Précipitation Vent Pression Humidité
    00:00 0°C° 0 mm 5 m/s 747 mmHg 85%
    01:00 -1°C° 0.1 mm 6 m/s 747 mmHg 85%
    02:00 -1°C° 0.1 mm 6 m/s 747 mmHg 85%
    03:00 -2°C° 0.1 mm 6 m/s 747 mmHg 85%
    04:00 -1°C° 0.2 mm 6 m/s 747 mmHg 85%
    05:00 -1°C° 0.2 mm 6 m/s 747 mmHg 85%
    06:00 -1°C° 0.2 mm 7 m/s 747 mmHg 85%
    07:00 -1°C° 0.2 mm 7 m/s 747 mmHg 85%
    08:00 -1°C° 0.2 mm 7 m/s 747 mmHg 86%
    09:00 -1°C° 0.2 mm 7 m/s 747 mmHg 87%
    10:00 0°C° 0.1 mm 8 m/s 747 mmHg 81%
    11:00 0°C° 0.1 mm 8 m/s 747 mmHg 75%
    12:00 +1°C° 0.1 mm 8 m/s 747 mmHg 69%
    13:00 +1°C° 0.1 mm 8 m/s 747 mmHg 69%
    14:00 0°C° 0.1 mm 8 m/s 747 mmHg 70%
    15:00 0°C° 0.1 mm 8 m/s 747 mmHg 70%
    16:00 0°C° 0.1 mm 7 m/s 747 mmHg 73%
    17:00 -1°C° 0.1 mm 6 m/s 747 mmHg 77%
    18:00 -1°C° 0.1 mm 5 m/s 747 mmHg 81%
    19:00 -1°C° 0 mm 4 m/s 748 mmHg 82%
    20:00 -2°C° 0 mm 4 m/s 749 mmHg 83%
    21:00 -2°C° 0 mm 4 m/s 749 mmHg 85%
    22:00 -2°C° 0 mm 4 m/s 749 mmHg 86%
    23:00 -2°C° 0 mm 5 m/s 750 mmHg 86%
    Voir plus